Time,TemperatureF,DewpointF,PressureIn,WindDirection,WindDirectionDegrees,WindSpeedMPH,WindSpeedGustMPH,Humidity,HourlyPrecipIn,Conditions,Clouds,dailyrainin,SolarRadiationWatts/m^2,SoftwareType,DateUTC
2013-06-26 00:00:00,66.0,61.0,30.02,WSW,258,0.0,6.0,85,0.00,,,0.00,0,weatherlink.com 1.10,2013-06-26 07:00:00,
2013-06-26 00:15:00,65.9,61.0,30.02,WSW,258,0.0,4.0,85,0.00,,,0.00,0,weatherlink.com 1.10,2013-06-26 07:15:00,
2013-06-26 00:30:00,65.8,62.0,30.02,WSW,258,2.0,4.0,86,0.00,,,0.00,0,weatherlink.com 1.10,2013-06-26 07:30:00,
2013-06-26 00:45:00,65.8,62.0,30.01,WSW,258,0.0,3.0,86,0.00,,,0.00,0,weatherlink.com 1.10,2013-06-26 07:45:00,
2013-06-26 01:00:00,65.7,62.0,30.01,WSW,258,0.0,4.0,86,0.00,,,0.00,0,weatherlink.com 1.10,2013-06-26 08:00:00,
2013-06-26 01:15:00,65.7,62.0,30.01,WSW,258,0.0,3.0,86,0.00,,,0.00,0,weatherlink.com 1.10,2013-06-26 08:15:00,
2013-06-26 01:30:00,65.7,62.0,30.01,WSW,258,2.0,2.0,86,0.00,,,0.00,0,weatherlink.com 1.10,2013-06-26 08:30:00,
2013-06-26 01:45:00,65.7,62.0,30.01,WSW,258,2.0,3.0,86,0.00,,,0.00,0,weatherlink.com 1.10,2013-06-26 08:45:00,
2013-06-26 02:01:00,65.4,61.0,30.01,WSW,258,2.0,4.0,86,0.00,,,0.00,0,weatherlink.com 1.10,2013-06-26 09:01:00,
2013-06-26 02:16:00,64.9,61.0,30.00,West,265,3.0,5.0,87,0.00,,,0.00,0,weatherlink.com 1.10,2013-06-26 09:16:00,
2013-06-26 02:31:00,64.6,61.0,30.01,West,268,3.0,4.0,87,0.00,,,0.00,0,weatherlink.com 1.10,2013-06-26 09:31:00,
2013-06-26 02:46:00,64.2,61.0,30.01,West,267,1.0,4.0,88,0.00,,,0.00,0,weatherlink.com 1.10,2013-06-26 09:46:00,
2013-06-26 03:01:00,63.9,61.0,30.01,West,267,0.0,2.0,89,0.00,,,0.00,0,weatherlink.com 1.10,2013-06-26 10:01:00,
2013-06-26 03:16:00,63.7,61.0,30.01,West,267,1.0,3.0,89,0.00,,,0.00,0,weatherlink.com 1.10,2013-06-26 10:16:00,
2013-06-26 03:31:00,63.5,61.0,30.01,West,267,1.0,4.0,90,0.00,,,0.00,0,weatherlink.com 1.10,2013-06-26 10:31:00,
2013-06-26 03:46:00,63.4,61.0,30.01,West,267,0.0,2.0,90,0.00,,,0.00,0,weatherlink.com 1.10,2013-06-26 10:46:00,
2013-06-26 04:01:00,63.1,60.0,30.02,West,267,0.0,0.0,90,0.00,,,0.00,0,weatherlink.com 1.10,2013-06-26 11:01:00,
2013-06-26 04:16:00,62.8,60.0,30.02,West,267,0.0,1.0,91,0.00,,,0.00,0,weatherlink.com 1.10,2013-06-26 11:16:00,
2013-06-26 04:31:00,62.6,60.0,30.02,West,267,0.0,1.0,91,0.00,,,0.00,0,weatherlink.com 1.10,2013-06-26 11:31:00,
2013-06-26 04:46:00,62.2,60.0,30.02,West,267,0.0,0.0,91,0.00,,,0.00,0,weatherlink.com 1.10,2013-06-26 11:46:00,
2013-06-26 05:01:00,62.0,60.0,30.02,West,267,0.0,0.0,92,0.00,,,0.00,0,weatherlink.com 1.10,2013-06-26 12:01:00,
2013-06-26 05:16:00,62.0,60.0,30.03,West,267,0.0,0.0,92,0.00,,,0.00,0,weatherlink.com 1.10,2013-06-26 12:16:00,
2013-06-26 05:31:00,62.1,60.0,30.03,West,267,0.0,0.0,92,0.00,,,0.00,0,weatherlink.com 1.10,2013-06-26 12:31:00,
2013-06-26 05:46:00,62.4,60.0,30.04,West,267,0.0,0.0,93,0.00,,,0.00,0,weatherlink.com 1.10,2013-06-26 12:46:00,
2013-06-26 06:01:00,62.6,60.0,30.04,West,267,0.0,1.0,92,0.00,,,0.00,5,weatherlink.com 1.10,2013-06-26 13:01:00,
2013-06-26 06:16:00,63.1,61.0,30.05,West,267,0.0,4.0,92,0.00,,,0.00,11,weatherlink.com 1.10,2013-06-26 13:16:00,
2013-06-26 06:31:00,63.5,61.0,30.05,West,267,0.0,3.0,91,0.00,,,0.00,19,weatherlink.com 1.10,2013-06-26 13:31:00,
2013-06-26 06:46:00,64.0,61.0,30.05,West,267,0.0,2.0,90,0.00,,,0.00,35,weatherlink.com 1.10,2013-06-26 13:46:00,
2013-06-26 07:01:00,64.3,61.0,30.06,West,267,2.0,2.0,90,0.00,,,0.00,46,weatherlink.com 1.10,2013-06-26 14:01:00,
2013-06-26 07:16:00,64.6,61.0,30.06,West,267,0.0,4.0,89,0.00,,,0.00,54,weatherlink.com 1.10,2013-06-26 14:16:00,
2013-06-26 07:31:00,64.8,61.0,30.06,West,267,2.0,5.0,88,0.00,,,0.00,72,weatherlink.com 1.10,2013-06-26 14:31:00,
2013-06-26 07:46:00,65.0,61.0,30.07,West,267,2.0,4.0,88,0.00,,,0.00,88,weatherlink.com 1.10,2013-06-26 14:46:00,
2013-06-26 08:01:00,65.4,62.0,30.07,West,267,1.0,1.0,87,0.00,,,0.00,97,weatherlink.com 1.10,2013-06-26 15:01:00,
2013-06-26 08:16:00,65.6,62.0,30.07,West,267,0.0,3.0,87,0.00,,,0.00,104,weatherlink.com 1.10,2013-06-26 15:16:00,
2013-06-26 08:31:00,66.3,62.0,30.08,West,267,4.0,4.0,86,0.00,,,0.00,114,weatherlink.com 1.10,2013-06-26 15:31:00,
2013-06-26 08:46:00,66.6,62.0,30.08,West,267,2.0,5.0,84,0.00,,,0.00,178,weatherlink.com 1.10,2013-06-26 15:46:00,
2013-06-26 09:01:00,66.9,62.0,30.08,West,274,0.0,4.0,85,0.00,,,0.00,257,weatherlink.com 1.10,2013-06-26 16:01:00,
2013-06-26 09:31:00,68.7,62.0,30.08,West,259,2.0,7.0,80,0.00,,,0.00,619,weatherlink.com 1.10,2013-06-26 16:31:00,
2013-06-26 09:47:00,69.5,63.0,30.08,West,273,2.0,6.0,80,0.00,,,0.00,657,weatherlink.com 1.10,2013-06-26 16:47:00,
2013-06-26 10:02:00,70.3,63.0,30.07,West,279,1.0,6.0,77,0.00,,,0.00,705,weatherlink.com 1.10,2013-06-26 17:02:00,
2013-06-26 10:17:00,71.3,63.0,30.07,SW,234,3.0,5.0,75,0.00,,,0.00,742,weatherlink.com 1.10,2013-06-26 17:17:00,
2013-06-26 10:32:00,72.8,63.0,30.07,WSW,258,0.0,7.0,72,0.00,,,0.00,777,weatherlink.com 1.10,2013-06-26 17:32:00,
2013-06-26 10:47:00,74.0,63.0,30.07,West,266,3.0,6.0,69,0.00,,,0.00,810,weatherlink.com 1.10,2013-06-26 17:47:00,
2013-06-26 11:02:00,75.5,64.0,30.07,West,272,3.0,8.0,68,0.00,,,0.00,838,weatherlink.com 1.10,2013-06-26 18:02:00,
2013-06-26 11:17:00,76.5,64.0,30.07,West,269,4.0,7.0,65,0.00,,,0.00,868,weatherlink.com 1.10,2013-06-26 18:17:00,
2013-06-26 11:32:00,77.9,64.0,30.07,WSW,240,6.0,7.0,62,0.00,,,0.00,891,weatherlink.com 1.10,2013-06-26 18:32:00,
2013-06-26 11:47:00,78.2,63.0,30.06,West,268,2.0,9.0,60,0.00,,,0.00,911,weatherlink.com 1.10,2013-06-26 18:47:00,
2013-06-26 12:02:00,79.2,63.0,30.06,West,264,2.0,7.0,58,0.00,,,0.00,930,weatherlink.com 1.10,2013-06-26 19:02:00,
2013-06-26 12:17:00,80.5,64.0,30.06,West,271,5.0,8.0,58,0.00,,,0.00,939,weatherlink.com 1.10,2013-06-26 19:17:00,
2013-06-26 12:32:00,80.4,64.0,30.06,SW,233,0.0,9.0,57,0.00,,,0.00,947,weatherlink.com 1.10,2013-06-26 19:32:00,
2013-06-26 12:47:00,81.8,64.0,30.06,SW,234,1.0,7.0,55,0.00,,,0.00,953,weatherlink.com 1.10,2013-06-26 19:47:00,
2013-06-26 13:02:00,83.3,64.0,30.06,West,275,4.0,9.0,53,0.00,,,0.00,954,weatherlink.com 1.10,2013-06-26 20:02:00,
2013-06-26 13:17:00,83.3,64.0,30.05,West,267,5.0,12.0,52,0.00,,,0.00,949,weatherlink.com 1.10,2013-06-26 20:17:00,
2013-06-26 13:32:00,83.8,65.0,30.05,WNW,303,2.0,8.0,53,0.00,,,0.00,951,weatherlink.com 1.10,2013-06-26 20:32:00,
2013-06-26 13:47:00,84.3,64.0,30.05,West,263,8.0,11.0,50,0.00,,,0.00,940,weatherlink.com 1.10,2013-06-26 20:47:00,
2013-06-26 14:02:00,84.6,63.0,30.04,West,275,1.0,14.0,49,0.00,,,0.00,926,weatherlink.com 1.10,2013-06-26 21:02:00,
2013-06-26 14:17:00,84.5,63.0,30.04,West,262,3.0,12.0,48,0.00,,,0.00,912,weatherlink.com 1.10,2013-06-26 21:17:00,
2013-06-26 14:32:00,84.1,62.0,30.04,West,263,5.0,13.0,48,0.00,,,0.00,889,weatherlink.com 1.10,2013-06-26 21:32:00,
2013-06-26 14:47:00,84.9,63.0,30.04,West,261,4.0,12.0,48,0.00,,,0.00,872,weatherlink.com 1.10,2013-06-26 21:47:00,
2013-06-26 15:02:00,85.4,63.0,30.03,West,264,10.0,11.0,48,0.00,,,0.00,844,weatherlink.com 1.10,2013-06-26 22:02:00,
2013-06-26 15:17:00,85.2,63.0,30.03,West,279,2.0,11.0,48,0.00,,,0.00,817,weatherlink.com 1.10,2013-06-26 22:17:00,
2013-06-26 15:32:00,84.9,63.0,30.03,WSW,248,3.0,12.0,48,0.00,,,0.00,789,weatherlink.com 1.10,2013-06-26 22:32:00,
2013-06-26 15:48:00,85.1,63.0,30.02,WSW,251,6.0,12.0,48,0.00,,,0.00,754,weatherlink.com 1.10,2013-06-26 22:48:00,
2013-06-26 16:03:00,84.7,62.0,30.02,WSW,255,6.0,9.0,47,0.00,,,0.00,714,weatherlink.com 1.10,2013-06-26 23:03:00,
2013-06-26 16:18:00,84.0,62.0,30.02,WSW,253,2.0,14.0,48,0.00,,,0.00,682,weatherlink.com 1.10,2013-06-26 23:18:00,
2013-06-26 16:33:00,84.4,62.0,30.02,SSW,199,6.0,13.0,47,0.00,,,0.00,636,weatherlink.com 1.10,2013-06-26 23:33:00,
2013-06-26 16:48:00,83.9,62.0,30.02,West,281,5.0,11.0,48,0.00,,,0.00,601,weatherlink.com 1.10,2013-06-26 23:48:00,
2013-06-26 17:03:00,83.6,61.0,30.01,WSW,256,11.0,13.0,47,0.00,,,0.00,552,weatherlink.com 1.10,2013-06-27 00:03:00,
2013-06-26 17:18:00,83.5,62.0,30.01,West,273,7.0,11.0,48,0.00,,,0.00,512,weatherlink.com 1.10,2013-06-27 00:18:00,
2013-06-26 17:33:00,82.7,61.0,30.01,West,271,4.0,13.0,48,0.00,,,0.00,468,weatherlink.com 1.10,2013-06-27 00:33:00,
2013-06-26 17:48:00,82.1,61.0,30.01,WSW,246,4.0,15.0,49,0.00,,,0.00,420,weatherlink.com 1.10,2013-06-27 00:48:00,
2013-06-26 18:03:00,82.2,61.0,30.01,WSW,257,4.0,14.0,49,0.00,,,0.00,376,weatherlink.com 1.10,2013-06-27 01:03:00,
2013-06-26 18:18:00,81.5,60.0,30.01,WSW,252,8.0,12.0,49,0.00,,,0.00,325,weatherlink.com 1.10,2013-06-27 01:18:00,
2013-06-26 18:33:00,80.3,59.0,30.01,West,279,4.0,11.0,49,0.00,,,0.00,281,weatherlink.com 1.10,2013-06-27 01:33:00,
2013-06-26 18:48:00,80.1,59.0,30.02,West,259,6.0,12.0,49,0.00,,,0.00,234,weatherlink.com 1.10,2013-06-27 01:48:00,
2013-06-26 19:03:00,79.7,59.0,30.02,SW,227,5.0,11.0,49,0.00,,,0.00,192,weatherlink.com 1.10,2013-06-27 02:03:00,
2013-06-26 19:18:00,79.0,59.0,30.02,WSW,254,6.0,13.0,50,0.00,,,0.00,146,weatherlink.com 1.10,2013-06-27 02:18:00,
2013-06-26 19:33:00,78.8,60.0,30.02,WSW,256,7.0,9.0,52,0.00,,,0.00,95,weatherlink.com 1.10,2013-06-27 02:33:00,
2013-06-26 19:48:00,77.9,60.0,30.02,West,269,2.0,10.0,54,0.00,,,0.00,54,weatherlink.com 1.10,2013-06-27 02:48:00,
2013-06-26 20:03:00,77.2,60.0,30.02,WSW,247,7.0,9.0,56,0.00,,,0.00,25,weatherlink.com 1.10,2013-06-27 03:03:00,
2013-06-26 20:18:00,76.2,60.0,30.02,WSW,243,2.0,7.0,58,0.00,,,0.00,11,weatherlink.com 1.10,2013-06-27 03:18:00,
2013-06-26 20:33:00,75.1,60.0,30.03,West,267,2.0,7.0,59,0.00,,,0.00,0,weatherlink.com 1.10,2013-06-27 03:33:00,
2013-06-26 20:48:00,74.1,60.0,30.03,West,271,3.0,10.0,61,0.00,,,0.00,0,weatherlink.com 1.10,2013-06-27 03:48:00,
2013-06-26 21:03:00,73.3,59.0,30.03,West,279,2.0,5.0,62,0.00,,,0.00,0,weatherlink.com 1.10,2013-06-27 04:03:00,
2013-06-26 21:18:00,72.7,60.0,30.04,West,277,2.0,5.0,64,0.00,,,0.00,0,weatherlink.com 1.10,2013-06-27 04:18:00,
2013-06-26 21:33:00,71.7,60.0,30.05,West,280,2.0,5.0,66,0.00,,,0.00,0,weatherlink.com 1.10,2013-06-27 04:33:00,
2013-06-26 21:48:00,70.8,59.0,30.05,WNW,289,1.0,6.0,67,0.00,,,0.00,0,weatherlink.com 1.10,2013-06-27 04:48:00,
2013-06-26 22:03:00,70.2,60.0,30.05,WNW,289,0.0,1.0,69,0.00,,,0.00,0,weatherlink.com 1.10,2013-06-27 05:03:00,
2013-06-26 22:19:00,69.6,59.0,30.06,WNW,289,0.0,3.0,70,0.00,,,0.00,0,weatherlink.com 1.10,2013-06-27 05:19:00,
2013-06-26 22:33:00,69.3,60.0,30.06,WNW,289,0.0,1.0,71,0.00,,,0.00,0,weatherlink.com 1.10,2013-06-27 05:33:00,
2013-06-26 22:48:00,68.6,59.0,30.07,WNW,289,1.0,3.0,71,0.00,,,0.00,0,weatherlink.com 1.10,2013-06-27 05:48:00,
2013-06-26 23:03:00,68.1,59.0,30.07,WNW,289,0.0,2.0,72,0.00,,,0.00,0,weatherlink.com 1.10,2013-06-27 06:03:00,
2013-06-26 23:18:00,67.5,59.0,30.07,WNW,289,0.0,1.0,73,0.00,,,0.00,0,weatherlink.com 1.10,2013-06-27 06:18:00,
2013-06-26 23:33:00,67.0,58.0,30.08,WNW,289,1.0,2.0,74,0.00,,,0.00,0,weatherlink.com 1.10,2013-06-27 06:33:00,
2013-06-26 23:48:00,66.6,58.0,30.08,WNW,289,0.0,2.0,75,0.00,,,0.00,0,weatherlink.com 1.10,2013-06-27 06:48:00,